Location: Ernsee
(50.8780°N, 12.0389°E)
Time: 16:04:08
(UTC+00:00)

Cosmos 1295 Rocket - Pass Details

Date: 20 January 2020
Orbit: 943 x 995 km, 82.9° (Epoch: 25 February)

Event Time Altitude Azimuth Distance (km) Brightness Sun altitude
Rises 04:52:40 0° 347° (NNW) 3,691 7.3 -20.2°
Reaches altitude 10° 04:55:14 10° 344° (NNW) 2,731 6.6 -19.8°
Maximum altitude 05:01:20 58° 267° (W) 1,118 4.5 -18.9°
Drops below altitude 10° 05:07:19 10° 190° (S) 2,678 6.8 -17.9°
Sets 05:09:49 0° 187° (S) 3,613 7.5 -17.5°
